Wind_Speed
28 24 19 20 20 26 29 30 32 31 29 32 33 32 30 34 31 22 16 23 25 27 33 29 21 14 12 11 10 10 13 17 21 24 28 32 35 39 45 49 51 51 49 47
28 28 25 21 24 28 31 29 31 31 23 24 29 32 34 4 7 24 22 16 16 21 23 16 13 12 10 11 11 13 17 22 19 25 27 28 31 35 39 42 47 53 52 51
34 25 22 27 30 34 27 28 30 30 27 28 20 21 21 12 21 20 16 17 21 20 16 12 12 13 15 16 18 18 21 24 23 21 26 31 31 31 36 40 43 47 52 52
22 24 19 13 16 14 20 17 22 25 18 17 17 16 18 19 13 12 9 21 20 18 13 9 13 19 22 21 18 21 22 18 19 21 23 27 31 34 35 36 38 43 47 53
8 16 15 14 13 13 18 21 19 21 25 24 20 18 12 16 13 12 16 15 12 10 13 21 20 17 17 13 13 14 13 15 18 20 21 25 29 33 35 37 38 39 43 48
15 20 18 16 18 22 23 24 23 24 18 12 12 11 8 4 2 15 12 12 15 20 23 23 24 20 17 18 19 18 18 19 19 20 22 24 25 26 30 34 37 39 40 43
16 21 28 25 24 20 17 18 11 11 12 14 16 11 17 6 12 21 23 23 29 29 26 26 23 24 24 25 26 25 27 27 27 30 29 27 27 25 23 23 26 29 33 36
24 27 17 12 14 18 20 15 13 10 14 19 28 19 22 23 23 23 30 35 39 32 29 26 31 29 29 33 35 36 38 40 38 35 33 30 28 27 29 25 23 22 23 27
17 16 10 18 27 23 16 19 19 19 29 14 28 37 35 33 34 33 37 41 41 35 29 29 31 31 34 36 37 41 41 46 44 38 35 34 31 28 29 31 32 33 34 30
11 19 16 13 17 19 19 21 16 12 5 15 17 29 27 26 26 32 35 36 34 33 34 32 30 29 27 27 30 33 36 38 41 43 43 38 37 38 39 41 42 40 40 40
18 18 26 19 17 20 20 25 23 25 28 13 16 21 32 27 20 27 29 29 30 28 25 29 32 38 41 43 45 46 40 40 39 39 41 42 43 44 47 47 42 41 41 42
18 18 27 34 34 29 30 32 28 27 14 25 28 23 30 39 36 29 25 21 22 25 32 40 52 53 52 47 43 37 32 33 35 37 38 40 41 44 46 46 47 44 42 42
10 9 11 18 21 12 15 15 18 25 30 33 21 23 31 40 40 31 30 34 38 48 54 51 51 50 51 48 39 31 32 34 35 32 33 34 35 38 40 41 42 44 41 41
25 23 26 25 28 31 38 37 36 37 30 36 36 35 30 35 33 37 46 54 54 55 49 46 45 44 44 39 36 34 35 36 37 38 39 40 40 41 43 46 47 49 51 49
21 26 29 32 33 33 35 38 43 40 44 43 48 44 52 46 44 45 42 44 45 45 46 45 39 36 35 35 36 38 39 40 42 45 47 48 50 52 51 51 52 53 55 54
18 24 24 35 39 32 34 42 44 39 41 44 45 50 49 44 39 36 39 43 46 44 41 40 40 40 40 41 42 44 46 47 48 48 49 49 51 52 53 56 58 56 55 56
25 25 23 34 34 31 30 48 37 41 42 40 39 37 38 39 41 44 45 41 37 37 34 35 37 40 44 46 49 51 51 51 50 48 46 46 48 51 51 51 51 52 55 56
36 37 28 37 31 21 39 27 26 32 36 38 39 42 39 35 34 35 32 32 32 32 34 37 40 44 47 51 52 52 51 51 51 48 48 50 51 52 53 55 56 56 56 55
28 30 29 27 31 33 41 36 36 31 36 34 32 32 28 25 26 30 17 26 36 37 40 42 45 51 52 50 51 53 53 54 56 56 58 60 61 61 60 58 57 57 58 59
16 21 26 24 21 17 28 19 22 28 30 28 29 22 19 24 30 32 28 36 42 43 46 46 44 47 50 50 51 53 55 56 58 62 65 65 65 66 66 65 63 62 60 61
18 20 28 32 34 31 29 27 25 16 26 22 20 20 25 38 40 41 43 41 40 40 42 44 44 45 47 50 53 55 57 59 62 64 67 69 70 72 73 74 73 73 73 72
17 15 19 16 15 17 18 16 16 17 23 27 29 31 43 39 38 35 36 36 38 40 41 44 46 47 48 50 53 56 59 61 65 69 73 77 79 81 82 84 84 84 84 84
20 33 23 22 23 24 27 29 36 35 35 38 40 43 36 37 35 34 35 36 38 41 42 43 46 46 47 50 54 58 61 66 71 76 78 80 82 83 84 86 86 86 86 87
33 36 32 36 37 41 37 32 30 27 27 27 25 30 31 31 35 39 38 37 38 38 41 43 45 47 52 55 57 62 68 74 76 78 79 79 81 82 83 85 85 86 86 86
33 27 32 33 40 40 36 30 27 31 33 32 33 34 33 34 36 37 37 37 38 39 40 42 47 52 55 59 63 69 70 71 74 75 79 82 81 77 73 69 67 66 65 65
40 43 39 42 39 38 37 34 32 37 37 37 36 34 34 34 34 35 36 37 38 39 40 45 49 53 60 65 63 62 66 66 71 76 74 63 58 55 52 50 48 44 45 45
Wind_Direction
269 270 265 270 268 276 281 280 282 285 294 290 290 292 298 308 307 305 288 289 282 270 265 268 269 248 230 236 237 255 279 281 277 272 266 261 260 260 260 259 257 256 254 251
267 272 285 274 267 276 279 279 285 291 295 294 295 295 316 315 314 304 292 281 250 244 251 246 234 230 256 266 272 279 298 313 294 275 268 268 265 261 258 257 256 254 254 252
274 267 270 270 273 281 279 283 290 292 296 300 298 298 312 277 311 286 273 268 242 239 228 228 239 266 293 293 287 293 293 306 297 285 280 268 264 264 262 260 257 255 251 251
276 288 284 275 284 284 277 289 288 298 302 302 311 298 291 297 277 276 246 235 239 220 220 246 286 296 296 298 305 308 311 299 284 295 294 285 272 268 266 264 261 258 251 247
259 283 293 293 295 297 291 293 289 293 296 295 290 271 300 289 281 196 220 210 208 229 270 288 284 287 287 284 287 297 305 297 288 293 300 294 283 276 271 272 267 260 255 251
287 275 289 291 290 296 291 291 290 291 286 271 294 257 295 300 301 214 221 232 268 286 294 300 298 295 295 289 301 304 299 300 309 309 314 314 306 295 286 280 276 270 262 256
288 294 294 294 296 295 294 289 296 278 259 267 280 279 265 264 291 245 236 271 283 284 287 294 290 286 293 298 301 291 286 285 291 303 303 306 306 307 312 305 295 284 276 271
290 294 278 277 283 283 282 265 262 287 284 294 290 270 259 276 264 258 263 266 271 273 282 285 284 288 294 298 294 294 294 295 299 303 306 305 297 290 292 300 309 308 311 293
289 263 258 276 286 282 278 263 271 272 272 283 269 272 270 270 265 259 259 260 263 267 268 268 268 274 286 289 288 292 293 290 298 307 304 299 298 292 287 287 291 295 299 306
252 284 281 280 280 270 253 267 277 256 254 261 263 273 272 283 254 258 253 252 254 257 260 271 284 291 292 294 299 301 301 297 296 296 297 297 293 294 297 298 296 293 290 294
254 265 272 273 268 277 278 268 261 268 253 260 268 267 275 281 268 260 246 243 253 267 282 289 297 300 298 295 298 303 299 289 289 290 290 288 287 287 290 292 293 291 291 291
267 268 266 275 278 269 267 265 265 256 255 246 260 260 269 278 278 272 262 255 261 275 290 296 302 299 302 299 299 295 286 283 284 285 286 286 288 287 287 286 290 295 291 288
253 259 277 286 286 277 267 266 263 272 274 267 272 283 283 271 270 281 281 283 289 296 306 300 298 298 298 298 296 290 290 287 282 280 280 280 281 282 284 285 286 288 291 289
271 263 255 258 266 281 289 284 280 271 273 278 268 272 264 288 301 304 300 300 298 297 298 297 295 293 292 293 291 293 291 285 281 280 282 281 279 277 276 279 284 288 290 291
272 266 267 267 269 272 274 276 272 270 270 266 275 278 276 285 292 285 283 286 291 294 294 296 294 293 292 290 291 293 293 291 289 287 288 286 285 285 286 284 283 285 286 284
263 267 271 272 278 277 278 276 271 270 270 271 275 277 286 283 282 282 284 287 288 287 287 289 296 302 306 307 305 303 303 304 304 303 301 299 296 292 288 284 285 284 282 280
265 267 271 273 282 285 275 270 273 272 275 275 276 279 276 275 278 279 280 282 281 280 284 290 295 300 304 306 308 308 308 307 306 305 305 304 302 300 298 295 292 286 282 280
271 272 264 268 279 260 269 285 273 274 274 277 279 279 281 280 275 274 275 276 275 279 288 298 302 302 302 304 305 304 306 306 305 303 302 302 301 300 298 296 295 293 291 287
266 261 261 254 255 264 275 282 278 280 277 275 274 274 272 267 269 270 291 281 282 293 296 297 300 301 304 305 303 304 305 304 303 301 301 302 301 300 298 294 292 290 288 287
246 249 239 249 257 266 280 281 280 285 285 284 279 268 259 294 295 284 285 288 295 299 301 302 301 301 303 303 302 302 302 302 301 301 301 300 299 298 296 293 291 288 287 286
257 247 238 247 255 267 276 277 273 262 281 287 267 257 286 298 298 297 295 297 298 300 302 302 302 302 302 301 301 302 303 303 302 301 300 298 297 296 294 292 290 288 285 284
247 253 245 251 261 271 268 261 249 269 282 283 272 279 297 294 293 295 295 294 295 296 298 300 301 303 304 303 303 303 302 301 301 300 300 299 297 296 294 292 290 288 286 284
246 254 255 245 252 266 275 280 279 288 288 281 277 280 283 284 283 289 294 290 291 296 300 302 303 305 305 304 303 302 302 302 301 300 300 298 296 294 292 291 289 287 286 284
262 277 258 265 269 289 293 285 288 292 290 287 274 276 283 287 283 287 291 292 294 298 300 303 306 308 309 306 305 304 305 304 303 302 301 299 298 296 293 291 288 287 285 282
272 272 267 265 283 295 292 291 293 295 294 283 273 277 284 287 286 286 289 292 295 299 302 306 309 309 309 309 308 307 307 306 305 305 305 303 300 297 295 294 292 290 287 285
275 283 265 271 288 280 286 292 290 286 294 289 283 280 286 287 287 286 289 293 297 300 304 308 310 311 312 311 310 310 310 311 311 309 309 307 306 304 303 302 301 297 296 294
Height
3124 3126 3125 3128 3129 3125 3123 3121 3117 3117 3118 3114 3109 3104 3104 3104 3102 3099 3097 3096 3093 3089 3083 3084 3084 3085 3084 3084 3084 3084 3084 3084 3084 3083 3084 3085 3086 3087 3088 3089 3089 3090 3092 3095
3119 3116 3120 3121 3121 3120 3119 3115 3113 3111 3112 3108 3102 3097 3097 3096 3096 3095 3091 3088 3084 3079 3079 3080 3080 3081 3081 3081 3081 3080 3079 3078 3078 3077 3077 3077 3077 3077 3077 3077 3078 3079 3082 3085
3114 3117 3114 3114 3113 3112 3113 3113 3110 3108 3105 3102 3095 3092 3093 3092 3092 3090 3086 3080 3076 3077 3077 3077 3078 3078 3079 3078 3077 3074 3073 3073 3071 3071 3069 3069 3068 3068 3068 3067 3068 3068 3071 3074
3107 3107 3107 3108 3108 3108 3106 3105 3102 3102 3101 3100 3097 3083 3087 3085 3085 3081 3079 3073 3074 3076 3076 3074 3074 3073 3071 3071 3070 3069 3067 3067 3067 3066 3064 3062 3061 3062 3060 3059 3058 3058 3059 3061
3104 3101 3103 3103 3104 3104 3103 3101 3099 3096 3093 3091 3095 3090 3078 3078 3078 3075 3073 3073 3073 3072 3071 3071 3069 3068 3067 3066 3065 3063 3062 3062 3061 3060 3058 3057 3055 3053 3051 3051 3051 3050 3049 3050
3101 3098 3100 3101 3098 3099 3097 3094 3093 3092 3090 3083 3080 3083 3077 3076 3076 3070 3071 3071 3071 3070 3067 3065 3065 3064 3062 3060 3058 3055 3055 3054 3054 3054 3053 3051 3049 3047 3045 3043 3042 3042 3042 3041
3097 3095 3093 3096 3097 3095 3094 3094 3087 3085 3085 3074 3079 3076 3075 3075 3073 3069 3068 3067 3065 3063 3062 3060 3058 3056 3055 3054 3052 3049 3050 3050 3049 3049 3048 3048 3046 3044 3041 3039 3037 3034 3033 3033
3093 3089 3091 3089 3092 3094 3093 3093 3092 3082 3075 3073 3079 3066 3065 3069 3066 3065 3063 3060 3058 3057 3055 3053 3051 3050 3049 3048 3047 3047 3043 3041 3041 3042 3041 3040 3039 3038 3037 3034 3033 3031 3028 3026
3089 3085 3087 3087 3085 3088 3089 3086 3086 3082 3077 3074 3065 3061 3062 3063 3056 3057 3055 3053 3049 3047 3048 3048 3047 3045 3043 3041 3038 3037 3036 3036 3034 3032 3033 3033 3031 3030 3028 3027 3025 3023 3021 3020
3082 3078 3079 3081 3080 3081 3081 3082 3081 3079 3076 3067 3057 3054 3051 3054 3047 3046 3046 3045 3045 3042 3041 3041 3040 3039 3037 3035 3032 3029 3029 3030 3028 3026 3024 3023 3022 3021 3019 3018 3017 3015 3013 3012
3078 3078 3072 3074 3071 3074 3077 3075 3076 3073 3068 3060 3057 3050 3046 3046 3044 3039 3039 3038 3037 3036 3036 3034 3034 3033 3030 3028 3026 3023 3023 3022 3020 3018 3015 3014 3012 3011 3009 3007 3006 3005 3003 3003
3074 3073 3069 3064 3065 3068 3066 3065 3069 3065 3057 3053 3050 3042 3043 3039 3037 3035 3032 3031 3030 3029 3026 3026 3026 3024 3023 3021 3016 3015 3014 3012 3011 3008 3006 3003 3001 2999 2997 2996 2993 2992 2992 2990
3066 3065 3065 3059 3059 3056 3057 3059 3059 3057 3053 3046 3043 3035 3037 3035 3030 3027 3024 3022 3020 3017 3018 3017 3015 3013 3010 3009 3005 3002 3001 3001 3001 2998 2996 2993 2991 2989 2986 2984 2982 2980 2979 2980
3059 3059 3057 3058 3054 3054 3054 3051 3052 3051 3045 3039 3034 3030 3027 3027 3024 3019 3014 3011 3011 3007 3007 3004 3001 3001 3000 2998 2995 2992 2990 2990 2989 2987 2985 2983 2981 2978 2975 2973 2971 2968 2967 2965
3052 3049 3049 3047 3047 3048 3044 3042 3038 3038 3036 3032 3024 3023 3019 3020 3022 3014 3012 3008 3002 2998 2994 2989 2989 2991 2990 2989 2987 2984 2980 2978 2976 2975 2972 2970 2967 2964 2962 2961 2959 2957 2955 2952
3046 3041 3040 3033 3035 3037 3033 3027 3024 3026 3024 3019 3017 3012 3016 3012 3006 3003 2999 2999 2997 2992 2988 2984 2982 2979 2975 2974 2971 2970 2966 2964 2963 2960 2958 2955 2952 2950 2948 2946 2943 2941 2939 2937
3037 3035 3033 3024 3028 3028 3020 3010 3016 3013 3011 3010 3005 3004 3002 3001 2998 2995 2992 2991 2989 2986 2983 2980 2977 2974 2970 2967 2961 2957 2954 2952 2949 2946 2944 2940 2936 2932 2930 2929 2927 2924 2922 2920
3024 3025 3027 3018 3023 3015 3000 3008 3006 3002 2999 2999 2996 2993 2991 2989 2988 2985 2984 2982 2980 2979 2978 2975 2971 2967 2963 2959 2952 2948 2944 2940 2936 2933 2930 2926 2923 2920 2918 2913 2910 2906 2904 2902
3015 3016 3017 3014 3007 2996 2996 2999 2997 2993 2987 2989 2986 2984 2981 2980 2978 2979 2980 2975 2972 2971 2969 2966 2963 2957 2953 2948 2942 2938 2934 2928 2923 2918 2914 2910 2906 2902 2899 2897 2894 2891 2885 2882
3008 3007 3009 3005 2998 2990 2992 2991 2989 2985 2978 2980 2979 2976 2975 2973 2971 2971 2970 2966 2965 2962 2959 2956 2952 2948 2944 2938 2932 2927 2922 2916 2911 2904 2899 2895 2889 2883 2879 2876 2873 2870 2867 2862
3000 2999 2996 2992 2989 2984 2983 2981 2980 2980 2977 2973 2971 2970 2968 2966 2964 2960 2959 2957 2955 2951 2949 2945 2942 2938 2934 2927 2921 2915 2909 2902 2896 2889 2883 2877 2871 2864 2859 2853 2851 2846 2843 2839
2994 2992 2988 2987 2984 2980 2974 2974 2975 2973 2969 2968 2966 2963 2960 2957 2953 2952 2951 2948 2946 2943 2940 2936 2932 2928 2924 2916 2909 2903 2897 2889 2881 2873 2865 2858 2850 2843 2836 2829 2824 2818 2814 2809
2985 2980 2979 2979 2974 2972 2967 2966 2965 2963 2960 2958 2957 2953 2950 2947 2945 2944 2942 2939 2936 2933 2930 2926 2921 2917 2914 2906 2898 2890 2883 2874 2865 2857 2848 2838 2828 2820 2811 2802 2795 2789 2785 2778
2972 2969 2968 2965 2963 2958 2959 2957 2956 2954 2951 2948 2945 2943 2941 2938 2937 2934 2932 2930 2927 2923 2919 2915 2910 2905 2900 2893 2886 2876 2866 2855 2844 2833 2823 2813 2801 2792 2783 2774 2766 2759 2753 2749
2962 2961 2956 2953 2950 2948 2947 2946 2946 2943 2941 2939 2936 2934 2932 2929 2927 2924 2922 2919 2916 2913 2909 2905 2899 2894 2887 2879 2872 2860 2848 2836 2824 2812 2799 2786 2774 2762 2752 2745 2737 2730 2725 2720
2949 2946 2948 2942 2942 2941 2938 2938 2937 2934 2931 2928 2925 2923 2922 2919 2917 2914 2912 2910 2906 2903 2898 2894 2888 2881 2874 2864 2855 2844 2832 2820 2806 2791 2776 2763 2752 2742 2734 2726 2719 2716 2709 2702